Weather History for KFSI - February, 2013

Change the Weather History Date:

Friday, February 8, 2013

  Actual Average (KLAW) Record (KLAW)
Temperature  
Mean Temperature 44 °F -  
Max Temperature 57 °F 52 °F 80 °F (2015)
Min Temperature 32 °F 27 °F 6 °F (1971)
Degree Days  
Heating Degree Days 20    
Moisture  
Dew Point 28 °F    
Average Humidity 53    
Maximum Humidity 81    
Minimum Humidity 23    
Precipitation  
Precipitation 0.00 in - - ()
Sea Level Pressure  
Sea Level Pressure 30.20 in    
Wind  
Wind Speed 10 mph (ENE)    
Max Wind Speed 17 mph    
Max Gust Speed -    
Visibility 10 miles    
Events      
Averages and records for this station are not official NWS values.
T = Trace of Precipitation, MM = Missing Value Source: NWS Daily Summary

Daily Weather History Graph

Daily Weather History Graph

Search for Another Location

Airport or City:

Trip Planner

Search our weather history database for the weather conditions in past years. The results will help you decide how hot, cold, wet, or windy it might be!

Date:

Astronomy

Feb. 08, 2013 Rise Set
Actual Time 7:25 AM CST 6:10 PM CST
Civil Twilight 6:59 AM CST 6:36 PM CST
Nautical Twilight 6:29 AM CST 7:06 PM CST
Astronomical Twilight 6:00 AM CST 7:35 PM CST
Moon 5:53 AM CST (2/8) 4:46 PM CST (2/8)
Length of Visible Light 11h 36m
Length of Day
10h 44m
Waning Crescent, 3% of the Moon is Illuminated
Feb 8
Waning Crescent
Feb 10
New
Feb 17
First Quarter
Feb 25
Full
Mar 4
Last Quarter

Hourly Weather History & Observations

Time (CST) Temp. Windchill Dew Point Humidity Pressure Visibility Wind Dir Wind Speed Gust Speed Precip Events Conditions
12:55 AM 43.3 °F 36.8 °F 32.4 °F 65% 30.19 in 10.0 mi North 12.7 mph - N/A   Clear
1:55 AM 44.2 °F 36.7 °F 31.6 °F 61% 30.19 in 10.0 mi North 17.3 mph - N/A   Clear
2:55 AM 41.7 °F 35.6 °F 30.7 °F 65% 30.21 in 10.0 mi North 10.4 mph - N/A   Clear
3:55 AM 38.7 °F 32.9 °F 30.0 °F 71% 30.22 in 10.0 mi North 8.1 mph - N/A   Clear
4:55 AM 35.8 °F 30.1 °F 28.2 °F 74% 30.23 in 10.0 mi North 6.9 mph - N/A   Clear
5:55 AM 36.0 °F 29.6 °F 28.4 °F 74% 30.24 in 10.0 mi North 8.1 mph - N/A   Clear
6:55 AM 32.7 °F 26.4 °F 27.3 °F 81% 30.25 in 10.0 mi North 6.9 mph - N/A   Clear
7:55 AM 35.6 °F 29.2 °F 27.9 °F 73% 30.26 in 10.0 mi North 8.1 mph - N/A   Clear
8:55 AM 41.4 °F 37.6 °F 29.5 °F 63% 30.29 in 10.0 mi North 5.8 mph - N/A   Clear
9:55 AM 46.9 °F - 29.5 °F 51% 30.30 in 10.0 mi NE 3.5 mph - N/A   Clear
10:55 AM 50.4 °F - 30.6 °F 47% 30.27 in 10.0 mi ENE 9.2 mph - N/A   Clear
11:55 AM 54.3 °F - 25.3 °F 33% 30.27 in 10.0 mi East 10.4 mph - N/A   Clear
12:55 PM 57.4 °F - 22.5 °F 26% 30.24 in 10.0 mi East 9.2 mph - N/A   Clear
1:55 PM 57.4 °F - 21.7 °F 25% 30.20 in 10.0 mi ENE 5.8 mph - N/A   Clear
2:55 PM 57.4 °F - 19.9 °F 23% 30.18 in 10.0 mi ESE 5.8 mph - N/A   Clear
3:55 PM 57.7 °F - 22.5 °F 26% 30.17 in 10.0 mi Variable 4.6 mph - N/A   Clear
4:55 PM 56.8 °F - 23.5 °F 28% 30.14 in 10.0 mi ESE 6.9 mph - N/A   Clear
5:55 PM 53.6 °F - 25.5 °F 34% 30.13 in 10.0 mi East 9.2 mph - N/A   Clear
6:55 PM 48.7 °F - 27.5 °F 44% 30.14 in 10.0 mi East 9.2 mph - N/A   Clear
7:55 PM 45.0 °F 40.6 °F 28.9 °F 53% 30.14 in 10.0 mi ESE 8.1 mph - N/A   Clear
8:55 PM 44.8 °F 39.4 °F 30.9 °F 58% 30.14 in 10.0 mi ESE 10.4 mph - N/A   Clear
9:55 PM 42.8 °F 38.0 °F 31.3 °F 64% 30.13 in 10.0 mi ESE 8.1 mph - N/A   Clear
10:55 PM 40.3 °F 36.3 °F 30.6 °F 68% 30.12 in 10.0 mi SE 5.8 mph - N/A   Clear
11:55 PM 41.9 °F 37.5 °F 31.6 °F 67% 30.11 in 10.0 mi SE 6.9 mph - N/A   Mostly Cloudy